カタログに戻る

STARLINK-31332

運用中通信VLEO
NORAD 59566·PAYLOAD·🇺🇸 United States

打ち上げ Apr 23, 2024 から Cape Canaveral Space Force Station

Loading…

次のパス (今後24時間)

TLE

最新Source: CelesTrak SupGP

元期: Sep 14, 2026, 20:43 UTC

1 59566C 24076C   26257.86368056  .00049614  00000+0  17975-2 0  2575
2 59566  43.0025  20.4232 0001606 278.1781 201.5525 15.27544748    15

AllMySatでSTARLINK-31332をリアルタイム追跡

Download on the App Store